This demonstration page uses our WeatherBlox Daily Observations layout. Learn more.

41.55636, -103.73856

Hourly Observations for December 22, 2016

Temp ( °F °C ) Dew Point ( °F °C ) Humidity (%) Winds ( mph kmh ) Pressure ( in mb ) Visibility ( mi km ) Precip ( " mm )
12:53 am 00:53 Clear 18 -7.8 12 -11.1 77 77 ENE 8 13 30.44 1031 10 16.0934 0 0
1:53 am 01:53 Clear 19 -7.2 13 -10.6 77 77 E 7 11 30.43 1031 10 16.0934 0 0
2:53 am 02:53 Clear 21 -6.1 13 -10.6 71 71 E 3 6 30.42 1030 10 16.0934 0 0
3:53 am 03:53 Clear 20 -6.7 14 -10 78 78 NNE 7 11 30.41 1030 10 16.0934 0 0
4:53 am 04:53 Clear 21 -6.1 14 -10 74 74 NNE 6 9 30.4 1030 10 16.0934 0 0
5:53 am 05:53 Clear 18 -7.8 11 -11.7 74 74 E 5 7 30.41 1030 10 16.0934 0 0
6:53 am 06:53 Clear 17 -8.3 10 -12.2 74 74 E 6 9 30.4 1029 10 16.0934 0 0
7:53 am 07:53 Sunny 17 -8.3 10 -12.2 74 74 E 3 6 30.38 1029 10 16.0934 0 0
8:53 am 08:53 Sunny 24 -4.4 16 -8.9 71 71 ESE 7 11 30.38 1029 10 16.0934 0 0
9:53 am 09:53 Sunny 30 -1.1 19 -7.2 64 64 E 7 11 30.34 1028 10 16.0934 0 0
10:53 am 10:53 Sunny 36 2.2 21 -6.1 55 55 ESE 7 11 30.29 1026 10 16.0934 0 0
11:53 am 11:53 Sunny 39 3.9 20 -6.7 46 46 ESE 7 11 30.22 1024 10 16.0934 0 0
12:53 pm 12:53 Sunny 43 6.1 22 -5.6 43 43 SSE 12 19 30.16 1021 10 16.0934 0 0
1:53 pm 13:53 Sunny 43 6.1 23 -5 45 45 SSE 8 13 30.13 1020 10 16.0934 0 0
2:53 pm 14:53 Mostly Sunny 43 6.1 23 -5 45 45 SSE 12 19 30.09 1019 10 16.0934 0 0
3:53 pm 15:53 Mostly Sunny 41 5 23 -5 49 49 SSE 9 15 30.07 1018 10 16.0934 0 0
4:53 pm 16:53 Mostly Clear 38 3.3 22 -5.6 52 52 SSE 10 17 30.1 1019 10 16.0934 0 0
5:53 pm 17:53 Cloudy 37 2.8 20 -6.7 50 50 SE 8 13 30.08 1019 10 16.0934 0 0
6:53 pm 18:53 Cloudy 36 2.2 21 -6.1 55 55 ESE 9 15 30.06 1018 10 16.0934 0 0
7:53 pm 19:53 Clear 30 -1.1 22 -5.6 72 72 E 9 15 30.02 1017 10 16.0934 0 0
8:53 pm 20:53 Mostly Cloudy 33 0.6 26 -3.3 75 75 ESE 10 17 29.96 1015 10 16.0934 0 0
9:53 pm 21:53 Cloudy 33 0.6 26 -3.3 75 75 SE 8 13 29.93 1014 10 16.0934 0 0
10:53 pm 22:53 Clear 29 -1.7 25 -3.9 85 85 ESE 8 13 29.9 1012 10 16.0934 0 0
11:53 pm 23:53 Clear 24 -4.4 20 -6.7 84 84 ESE 9 15 29.89 1012 10 16.0934 0 0

Powered by AerisWeather